KOREASAT 116

Last updated on Thu Jul 03 2025 00:02:48 GMT+0000 (Coordinated Universal Time)

1 45920U 20048A 25183.62626866 -.00000354 00000+0 00000+0 0 9996 2 45920 0.0239 296.5084 0001016 190.1323 135.9016 1.00270106 18132
UTC large
Height (km)
Speed (km/s)
/
Latitude / Longitude
Inclination (degrees)
Orbital Period (minutes)
Azimuth
Elevation
Range (km)
Doppler Factor

Next 0 passes for location: London (51.5072 / 0.1276)

Sorry there are no passes over London.